Satellite: NO-44
Catalog number: 26931
Epoch time:      10160.64834270
Element set:     478
Inclination:      067.0517 deg
RA of node:       223.3971 deg
Eccentricity:    0.0005590
Arg of perigee:   265.1976 deg
Mean anomaly:     094.8477 deg
Mean motion:   14.29598500 rev/day
Decay rate:      -2.30e-06 rev/day^2
Epoch rev:           45367
Checksum:              321

Satellite: SO-50
Catalog number: 27607
Epoch time:      10161.55233805
Element set:     195
Inclination:      064.5584 deg
RA of node:       016.6711 deg
Eccentricity:    0.0034671
Arg of perigee:   080.0705 deg
Mean anomaly:     280.4311 deg
Mean motion:   14.71546567 rev/day
Decay rate:        8.8e-07 rev/day^2
Epoch rev:           40140
Checksum:              278

Satellite: CO-55
Catalog number: 27844
Epoch time:      10160.55942449
Element set:     864
Inclination:      098.7085 deg
RA of node:       169.6428 deg
Eccentricity:    0.0009387
Arg of perigee:   187.7477 deg
Mean anomaly:     172.3570 deg
Mean motion:   14.20711640 rev/day
Decay rate:        6.6e-07 rev/day^2
Epoch rev:           36000
Checksum:              327

Satellite: CO-57
Catalog number: 27848
Epoch time:      10161.57401964
Element set:     815
Inclination:      098.7132 deg
RA of node:       169.7354 deg
Eccentricity:    0.0009245
Arg of perigee:   189.8643 deg
Mean anomaly:     170.2348 deg
Mean motion:   14.20503628 rev/day
Decay rate:        3.1e-07 rev/day^2
Epoch rev:           36010
Checksum:              305

Satellite: AO-51
Catalog number: 28375
Epoch time:      10160.92591994
Element set:    0697
Inclination:      098.0617 deg
RA of node:       154.8358 deg
Eccentricity:    0.0084435
Arg of perigee:   118.6272 deg
Mean anomaly:     242.3444 deg
Mean motion:   14.40687235 rev/day
Decay rate:        2.3e-07 rev/day^2
Epoch rev:           31246
Checksum:              320

Satellite: GENESAT1
Catalog number: 29655
Epoch time:      10161.87274791
Element set:      96
Inclination:      040.0174 deg
RA of node:       069.9937 deg
Eccentricity:    0.0010580
Arg of perigee:   276.5638 deg
Mean anomaly:     083.4003 deg
Mean motion:   15.92758979 rev/day
Decay rate:     9.0750e-04 rev/day^2
Epoch rev:           19898
Checksum:              350

Satellite: CP3
Catalog number: 31129
Epoch time:      10161.60127673
Element set:     598
Inclination:      097.9377 deg
RA of node:       201.5276 deg
Eccentricity:    0.0100320
Arg of perigee:   253.7365 deg
Mean anomaly:     105.2653 deg
Mean motion:   14.52263152 rev/day
Decay rate:       -7.3e-07 rev/day^2
Epoch rev:           16690
Checksum:              280

Satellite: CO-65
Catalog number: 32785
Epoch time:      10161.68145260
Element set:     703
Inclination:      097.8970 deg
RA of node:       226.6977 deg
Eccentricity:    0.0014094
Arg of perigee:   309.9582 deg
Mean anomaly:     050.0416 deg
Mean motion:   14.81664009 rev/day
Decay rate:       3.84e-06 rev/day^2
Epoch rev:           11452
Checksum:              313

Satellite: KKS-1
Catalog number: 33493
Epoch time:      10161.76830872
Element set:     562
Inclination:      098.0851 deg
RA of node:       281.2052 deg
Eccentricity:    0.0020381
Arg of perigee:   158.2468 deg
Mean anomaly:     201.9623 deg
Mean motion:   14.81005812 rev/day
Decay rate:       4.26e-06 rev/day^2
Epoch rev:            7453
Checksum:              279

Satellite: SOHLA-1
Catalog number: 33496
Epoch time:      10160.80701960
Element set:    0125
Inclination:      098.0582 deg
RA of node:       269.9776 deg
Eccentricity:    0.0005953
Arg of perigee:   218.6737 deg
Mean anomaly:     141.4064 deg
Mean motion:   14.69497023 rev/day
Decay rate:       -4.3e-07 rev/day^2
Epoch rev:           07379
Checksum:              317

/EX
SB KEPS @ AMSAT  $ORB10161.W
Orbital Elements  10161.WEATHER

HR AMSAT ORBITAL ELEMENTS FOR WEATHER SATELLITES
FROM WA5QGD FORT WORTH,TX June 10, 2010
Send Subscribe/unsubscribe to KEPS at http://www.amsat.org/mailman/listinfo/kep
BID: ORB10161.W
TO ALL RADIO AMATEURS BT

Satellite: NOAA-10
Catalog number: 16969
Epoch time:      10160.65266361
Element set:    0094
Inclination:      098.6565 deg
RA of node:       189.6906 deg
Eccentricity:    0.0011612
Arg of perigee:   230.7961 deg
Mean anomaly:     129.2167 deg
Mean motion:   14.27418096 rev/day
Decay rate:       -5.3e-07 rev/day^2
Epoch rev:           23450
Checksum:              309

Satellite: NOAA-11
Catalog number: 19531
Epoch time:      10160.81527933
Element set:    0107
Inclination:      098.7690 deg
RA of node:       249.9647 deg
Eccentricity:    0.0011587
Arg of perigee:   164.9793 deg
Mean anomaly:     195.1733 deg
Mean motion:   14.14926330 rev/day
Decay rate:      -1.77e-06 rev/day^2
Epoch rev:           12009
Checksum:              316

Satellite: NOAA-12
Catalog number: 21263
Epoch time:      10160.77123536
Element set:    0593
Inclination:      098.7643 deg
RA of node:       173.9327 deg
Eccentricity:    0.0012214
Arg of perigee:   183.4633 deg
Mean anomaly:     176.6454 deg
Mean motion:   14.25637746 rev/day
Decay rate:       2.13e-06 rev/day^2
Epoch rev:           99134
Checksum:              303

